Regional Weather Roundup
Issued by NWS

Home | Current Version | Previous Version | Text Only | Print | Product List | Glossary On
Versions: 1 2 3 4 5 6 7 8 9 10 11 12 13 14 15 16 17 18 19 20 21 22 23 24 25 26 27 28 29 30 31 32 33 34 35 36 37 38 39 40 41 42 43 44 45 46 47 48 49 50
000
ASUS45 KBOU 250710
RWRCO

WEATHER ROUNDUP FOR COLORADO
NATIONAL WEATHER SERVICE DENVER/BOULDER CO
100 AM MDT WED APR 25 2018

NOTE: "FAIR" INDICATES FEW OR NO CLOUDS BELOW 12000 FEET WITH NO
SIGNIFICANT WEATHER AND/OR OBSTRUCTIONS TO VISIBILITY.

COZ001>005-013-030-031-250800-
...NORTHWEST COLORADO...

CITY           SKY/WX    TMP DP  RH WIND       PRES   REMARKS
CRAIG          FAIR      30  21  69 NW3       30.41R
HAYDEN         FAIR      29  22  75 NE5       30.42S WCI  24
MEEKER         FAIR      32  20  61 CALM      30.41R
RANGELY        FAIR      39  20  46 NE13G20   30.40S
RABBIT EARS PA FAIR      19  18  93 W9        30.40S WCI   9
STEAMBOAT SPGS FAIR      31  20  64 CALM      30.40R
WALDEN         FAIR      21  16  79 N3        30.43R
$$

COZ006>008-011-250800-
...WEST CENTRAL VALLEYS...

CITY           SKY/WX    TMP DP  RH WIND       PRES   REMARKS
GRAND JUNCTION FAIR      44  17  33 N8        30.34R
MONTROSE       FAIR      39  19  44 SE9       30.36R
EAGLE          FAIR      34  21  59 CALM      30.41R
RIFLE          FAIR      40  22  48 CALM      30.37R
DELTA          FAIR      44  20  38 NE8       30.32R
NUCLA          FAIR      46  12  25 CALM      30.34R
$$

COZ017>023-064>068-250800-
...SOUTHWEST COLORADO...

CITY           SKY/WX    TMP DP  RH WIND       PRES   REMARKS
DURANGO        FAIR      53  20  27 CALM      30.18R
CORTEZ         FAIR      39  19  44 CALM      30.22R
PAGOSA SPRINGS FAIR      46  24  42 CALM      30.23R
TELLURIDE      FAIR      35  19  51 CALM      30.39R
WOLF CREEK PAS MOCLDY    32  12  43 NW7       30.44S WCI  26
$$

COZ009-010-012-014-032>034-037-058>063-250800-
...CENTRAL COLORADO...

CITY           SKY/WX    TMP DP  RH WIND       PRES   REMARKS
ASPEN          FAIR      30  20  66 SW7       30.37R WCI  23
BUENA VISTA    CLOUDY    31  28  88 SE7       30.41R WCI  24
COPPER MTN     NOT AVBL
BERTHOUD PASS  CLOUDY    14   3  62 NW14G25   30.38S WCI  -1
COTTONWOOD PAS FOG       32  30  93 CALM      30.40R VSB 1
GUNNISON       FAIR      34  15  46 S5        30.35R WCI  30
GRANBY         FAIR      26  20  77 CALM      30.41R
KREMMLING      FAIR      34  23  64 SE3       30.42R
LEADVILLE      CLOUDY    23  22  96 CALM      30.38R
MONARCH PASS   FAIR      23   9  54 W14G20    30.50R WCI  11
SALIDA         CLOUDY    32  30  91 SE5       30.49R WCI  27
SUNLIGHT       FAIR      21   9  58 CALM      30.45R
WILKERSON PASS MOCLDY   N/A N/A N/A NW6       30.40F
$$

COZ069>075-250800-
...SAN LUIS VALLEY/SANGRE DE CRISTO MOUNTAINS...

CITY           SKY/WX    TMP DP  RH WIND       PRES   REMARKS
ALAMOSA        CLOUDY    35  23  61 E5        30.30R WCI  31
DEL NORTE      NOT AVBL
LA VETA PASS   CLOUDY    21  19  93 MISG      30.48R FOG
SAGUACHE       NOT AVBL
$$

COZ035-036-038>040-250800-
...NORTHERN COLORADO FRONT RANGE...

CITY           SKY/WX    TMP DP  RH WIND       PRES   REMARKS
DENVER INTL AP CLOUDY    37  26  64 CALM      30.43F
AURORA         CLOUDY    35  30  84 CALM      30.43
FRONT RANGE AP CLOUDY    37  32  81 CALM      30.43F
ERIE MUNI ARPT CLOUDY    38  33  82 CALM      30.49F
BOULDER MUN AP CLOUDY    37  32  81 CALM      30.42F
CENTENNIAL     FLURRIES  34  32  92 NW3       30.42F
BROOMFIELD     CLOUDY    36  32  87 CALM      30.43F
FORT COLLINS   CLOUDY    37  30  75 S5        30.44S
LONGMONT       CLOUDY    40  32  73 CALM      30.45R
$$

COZ041-046-047-076>085-087-088-250800-
...PIKES PEAK/PALMER DIVIDE AND SOUTHERN FOOTHILLS...

CITY           SKY/WX    TMP DP  RH WIND       PRES   REMARKS
COLO. SPRINGS  MOCLDY    32  28  85 N15       30.41F WCI  22
A. F. ACADEMY  FAIR      29  28  95 NW3       30.40F
SCHRIEVER AFB  NOT AVBL
CHEYENNE MTN   MOCLDY    30  27  86 N5        30.36  WCI  25
ELLICOTT         N/A    N/A N/A N/A N6        30.40F
FALCON         CLOUDY    31  28  90 N8        30.42R WCI  23
FORT CARSON    NOT AVBL
LIMON          FAIR      31  28  89 NW9       30.40F WCI  23
MONUMENT HILL  CLOUDY    28  28 100 N6        30.42F WCI  22
CANON CITY     CLOUDY    36  36 100 SW5       30.43F
WALSENBURG     NOT AVBL
TRINIDAD       LGT SNOW  32  32 100 MISG      30.43R FOG
$$

COZ042>045-048>051-090-091-250800-
...NORTHEAST COLORADO...

CITY           SKY/WX    TMP DP  RH WIND       PRES   REMARKS
GREELEY ARPT   MOCLDY    38  29  70 CALM      30.44F
AKRON          FAIR      27  25  92 N8        30.41F WCI  19
BURLINGTON     FAIR      33  30  88 N14       30.38F WCI  23
WRAY           FAIR      32  30  93 W5        30.41F WCI  27
YUMA           FAIR      30  27  86 NW6       30.41F WCI  24
STERLING       NOT AVBL
HOLYOKE        FAIR      37  32  81 NW12      30.41F
FORT MORGAN    MOCLDY    29  25  83 NW8       30.44R WCI  22
$$

COZ086-089-092>099-250800-
...SOUTHEAST COLORADO...

CITY           SKY/WX    TMP DP  RH WIND       PRES   REMARKS
PUEBLO         CLOUDY    37  35  92 NW5       30.43F
LA JUNTA       CLOUDY    38  36  92 W9        30.43S
LAMAR          MOCLDY    39  35  86 NW7       30.40S
SPRINGFIELD      N/A     34  33  96 NW15      30.38S WCI  24
$$



USA.gov is the U.S. government's official web portal to all federal, state and local government web resources and services.